Regional Weather Roundup
Issued by NWS

Home | Current Version | Previous Version | Graphics & Text | Print | Product List | Glossary On
Versions: 1 2 3 4 5 6 7 8 9 10 11 12 13 14 15 16 17 18 19 20 21 22 23 24 25 26 27 28 29 30 31 32 33 34 35 36 37 38 39 40 41 42 43 44 45 46 47 48 49 50
000
ASUS44 KMEG 261310
RWRTN
TENNESSEE HOURLY STATE WEATHER ROUNDUP
NATIONAL WEATHER SERVICE MEMPHIS TN
800 AM CDT WED JUL 26 2017

TNZ002-004-019-021-049-052-054-088>092-261400-
WEST TENNESSEE

CITY           SKY/WX    TMP DP  RH WIND       PRES   REMARKS
MEMPHIS INTL   MOSUNNY   81  76  84 SW6       30.10S
NWS MEMPHIS      N/A     82 N/A N/A MISG        N/A
JACKSON        SUNNY     81  78  91 SW5       30.10S
SOMERVILLE       N/A     81  75  83 S5        30.09S
COVINGTON      PTSUNNY   81  77  89 CALM      30.09S
UNION CITY     SUNNY     81  77  89 CALM      30.08R
BOLIVAR        SUNNY     81  75  83 CALM      30.10R
PARIS          SUNNY     81  77  89 SW5       30.09R
HUNTINGDON     SUNNY     81  77  89 CALM      30.09R
SELMER         SUNNY     79  75  89 CALM      30.11R
SAVANNAH       SUNNY     79  75  89 CALM      30.11R
$$

TNZ008-025-027-028-033-062-065-066-261400-
NORTH MIDDLE TENNESSEE

CITY           SKY/WX    TMP DP  RH WIND       PRES   REMARKS
NASHVILLE      MOSUNNY   81  74  79 CALM      30.11F
PORTLAND       SUNNY     79  72  78 S6        30.11S
CLARKSVILLE    SUNNY     78  73  84 VRB3      30.10S
SMYRNA         SUNNY     79  74  84 SE3       30.12S
COOKEVILLE     SUNNY     75  70  83 CALM      30.14S
GALLATIN       SUNNY     77  72  83 E3        30.14S
CROSSVILLE     SUNNY     74  67  78 CALM      30.19F
$$

TNZ061-075-076-078-094-096-097-261400-
SOUTH MIDDLE TENNESSEE

CITY           SKY/WX    TMP DP  RH WIND       PRES   REMARKS
FAYETTEVILLE   MOSUNNY   77  75  94 CALM      30.14S
TULLAHOMA      SUNNY     79  70  73 S5        30.15S
WINCHESTER     SUNNY     77  72  83 CALM      30.14F
MCMINNVILLE    SUNNY     79  79 100 CALM      30.14S
COLUMBIA       SUNNY     77  77 100 CALM      30.10R
SHELBYVILLE    SUNNY     77  73  88 S5        30.13R
$$

TNZ017-018-042-046-047-261400-
NORTHEAST TENNESSEE

CITY           SKY/WX    TMP DP  RH WIND       PRES   REMARKS
TRI CITIES     MOSUNNY   72  63  73 E5        30.21R
ELIZABETHTON   PTSUNNY   73  66  78 CALM      30.22R
$$

TNZ012-013-036-069-073-074-261400-
CENTRAL EAST TENNESSEE

CITY           SKY/WX    TMP DP  RH WIND       PRES   REMARKS
KNOXVILLE      MOSUNNY   74  68  81 E3        30.16R
OAK RIDGE      SUNNY     74  67  78 CALM      30.18R
DOWNTOWN KNOXV SUNNY     73  70  88 CALM      30.16S
GATLINBURG     SUNNY     73  64  73 CALM      30.17R
MORRISTOWN     SUNNY     77  68  73 CALM      30.18S
JACKSBORO      PTSUNNY   72  68  88 CALM      30.20S
$$

TNZ083-085-099-261400-
SOUTHEAST TENNESSEE

CITY           SKY/WX    TMP DP  RH WIND       PRES   REMARKS
CHATTANOOGA    MOSUNNY   79  71  76 CALM      30.15R
DAYTON         MOSUNNY   75  73  94 CALM      30.14S
$$

SKY/WX REPORTED AS FAIR MEANS FEW OR NO CLOUDS BELOW
12 THOUSAND FEET.





USA.gov is the U.S. government's official web portal to all federal, state and local government web resources and services.